TimeAKDT,TemperatureF,Dew PointF,Humidity,Sea Level PressureIn,VisibilityMPH,Wind Direction,Wind SpeedMPH,Gust SpeedMPH,PrecipitationIn,Events,Conditions,WindDirDegrees,DateUTC
12:54 AM,19.9,16.0,85,29.92,10.0,NW,5.8,-,N/A,,Scattered Clouds,310,2012-10-18 08:54:00
1:54 AM,23.0,18.0,81,29.92,10.0,NW,10.4,-,N/A,,Overcast,320,2012-10-18 09:54:00
2:54 AM,23.0,17.1,78,29.92,10.0,NNW,10.4,-,N/A,,Overcast,330,2012-10-18 10:54:00
3:54 AM,24.1,16.0,71,29.93,10.0,NNW,11.5,-,N/A,,Overcast,330,2012-10-18 11:54:00
4:54 AM,24.1,17.1,75,29.93,10.0,NNW,11.5,-,N/A,,Overcast,330,2012-10-18 12:54:00
5:39 AM,24.8,17.6,74,29.93,10.0,NNW,8.1,-,N/A,,Overcast,330,2012-10-18 13:39:00
5:54 AM,25.0,17.1,72,29.94,10.0,NNW,10.4,-,N/A,,Overcast,340,2012-10-18 13:54:00
6:54 AM,24.1,18.0,77,29.95,10.0,NW,6.9,-,N/A,,Overcast,310,2012-10-18 14:54:00
7:54 AM,25.0,17.1,72,29.96,10.0,NNW,11.5,-,N/A,,Overcast,330,2012-10-18 15:54:00
8:40 AM,24.8,17.6,74,29.96,10.0,NNW,11.5,-,N/A,,Overcast,340,2012-10-18 16:40:00
8:54 AM,25.0,18.0,75,29.97,10.0,NNW,10.4,-,N/A,,Overcast,340,2012-10-18 16:54:00
9:18 AM,24.8,17.6,74,29.97,10.0,NNW,10.4,-,N/A,,Overcast,330,2012-10-18 17:18:00
9:54 AM,25.0,18.0,75,29.98,10.0,NNW,10.4,-,N/A,,Overcast,330,2012-10-18 17:54:00
10:54 AM,27.0,18.0,69,29.99,10.0,North,17.3,24.2,N/A,,Overcast,350,2012-10-18 18:54:00
11:54 AM,28.0,19.0,69,30.00,10.0,North,16.1,21.9,N/A,,Overcast,350,2012-10-18 19:54:00
12:54 PM,28.9,19.0,67,30.01,10.0,North,12.7,23.0,N/A,,Overcast,350,2012-10-18 20:54:00
1:54 PM,30.0,19.9,66,30.01,10.0,North,11.5,20.7,N/A,,Overcast,360,2012-10-18 21:54:00
2:02 PM,30.2,19.4,64,30.00,10.0,North,17.3,24.2,N/A,,Overcast,360,2012-10-18 22:02:00
2:54 PM,30.9,19.9,64,30.01,10.0,North,15.0,21.9,N/A,,Mostly Cloudy,350,2012-10-18 22:54:00
3:54 PM,30.9,19.9,64,30.01,10.0,North,15.0,23.0,N/A,,Overcast,350,2012-10-18 23:54:00
4:54 PM,32.0,21.0,64,30.01,10.0,NNW,12.7,-,N/A,,Overcast,340,2012-10-19 00:54:00
5:54 PM,32.0,19.9,61,30.02,10.0,NNW,12.7,-,N/A,,Mostly Cloudy,330,2012-10-19 01:54:00
6:54 PM,30.0,19.0,64,30.02,10.0,NW,9.2,-,N/A,,Scattered Clouds,320,2012-10-19 02:54:00
7:54 PM,28.0,18.0,66,30.03,10.0,North,11.5,-,N/A,,Scattered Clouds,350,2012-10-19 03:54:00
8:54 PM,26.1,18.0,71,30.04,10.0,NNW,8.1,-,N/A,,Scattered Clouds,340,2012-10-19 04:54:00
9:54 PM,24.1,17.1,75,30.04,10.0,NNW,10.4,-,N/A,,Partly Cloudy,340,2012-10-19 05:54:00
10:54 PM,24.1,16.0,71,30.05,10.0,NNW,10.4,-,N/A,,Partly Cloudy,330,2012-10-19 06:54:00
11:54 PM,25.0,17.1,72,30.06,10.0,NNW,11.5,-,N/A,,Mostly Cloudy,330,2012-10-19 07:54:00